Location: Karcze
(52.0945°N, 22.4786°E)
Time: 18:52:16
(UTC+00:00)

Tiros 1 despin weight - All Passes

Search period start: 27 July 2021 00:00
Search period end: 06 August 2021 00:00
Orbit: 593 x 642 km, 48.2° (Epoch: 27 July)

Date Brightness Start Highest point End Pass type
(mag) Time Alt. Az. Time Alt. Az. Time Alt. Az.
27 Jul - 13:02:28 10° S 13:05:00 14° SE 13:07:32 10° ESE daylight
27 Jul - 14:41:22 10° SW 14:45:40 37° SSE 14:49:59 10° E daylight
27 Jul - 16:22:16 10° WSW 16:26:50 54° S 16:31:22 10° ESE daylight
27 Jul - 18:03:41 10° W 18:08:00 38° SSW 18:12:16 10° SE daylight
27 Jul - 19:46:05 10° WSW 19:48:41 15° SW 19:51:16 10° S visible
28 Jul - 13:17:15 10° SSW 13:20:52 22° SSE 13:24:29 10° E daylight
28 Jul - 14:57:17 10° WSW 15:01:46 46° SSE 15:06:15 10° E daylight
28 Jul - 16:38:27 10° W 16:43:00 51° S 16:47:30 10° ESE daylight
28 Jul - 18:20:02 10° W 18:24:01 28° SSW 18:27:58 10° SSE daylight
29 Jul - 11:55:21 10° SSE 11:56:18 11° SE 11:57:15 10° SE daylight
29 Jul - 13:32:42 10° SW 13:36:50 31° SSE 13:40:57 10° E daylight
29 Jul - 15:13:21 10° WSW 15:17:55 52° S 15:22:27 10° E daylight
29 Jul - 16:54:40 10° W 16:59:08 44° SSW 17:03:32 10° SE daylight
29 Jul - 18:36:38 10° W 18:39:58 20° SW 18:43:15 10° SSE daylight
30 Jul - 12:09:01 10° S 12:12:06 17° SE 12:15:11 10° ESE daylight
30 Jul - 13:48:29 10° SW 13:52:53 41° SSE 13:57:17 10° E daylight
30 Jul - 15:29:30 10° W 15:34:05 53° S 15:38:37 10° ESE daylight
30 Jul - 17:10:58 10° W 17:15:12 34° SSW 17:19:23 10° SE daylight
30 Jul - 18:53:55 10° WSW 18:55:47 12° SW 18:57:40 10° SSW daylight
31 Jul - 12:24:09 10° SSW 12:28:00 26° SSE 12:31:53 10° E daylight
31 Jul - 14:04:27 10° WSW 14:09:00 49° S 14:13:31 10° E daylight
31 Jul - 15:45:42 10° W 15:50:14 49° S 15:54:43 10° ESE daylight
31 Jul - 17:27:23 10° W 17:31:11 25° SSW 17:34:57 10° SSE daylight
01 Aug - 11:01:13 10° SSE 11:03:23 13° SE 11:05:33 10° ESE daylight
01 Aug - 12:39:45 10° SW 12:44:00 35° SSE 12:48:17 10° E daylight
01 Aug - 14:20:34 10° WSW 14:25:09 54° S 14:29:43 10° ESE daylight
01 Aug - 16:01:56 10° W 16:06:20 40° SSW 16:10:41 10° SE daylight
01 Aug - 17:44:09 10° WSW 17:47:05 17° SW 17:49:59 10° S daylight
02 Aug - 11:15:46 10° SSW 11:19:13 21° SSE 11:22:41 10° E daylight
02 Aug - 12:55:37 10° WSW 13:00:05 45° SSE 13:04:34 10° E daylight
02 Aug - 14:36:44 10° W 14:41:18 52° S 14:45:51 10° ESE daylight
02 Aug - 16:18:16 10° W 16:22:22 30° SSW 16:26:26 10° SE daylight
03 Aug - 11:31:07 10° SSW 11:35:09 29° SSE 11:39:14 10° E daylight
03 Aug - 13:11:40 10° WSW 13:16:13 52° S 13:20:47 10° E daylight
03 Aug - 14:52:57 10° W 14:57:26 46° SSW 15:01:55 10° ESE daylight
03 Aug - 16:34:47 10° W 16:38:19 21° SSW 16:41:50 10° SSE daylight
04 Aug - 10:07:40 10° S 10:10:28 16° SE 10:13:17 10° ESE daylight
04 Aug - 11:46:50 10° SW 11:51:11 39° SSE 11:55:34 10° E daylight
04 Aug - 13:27:48 10° WSW 13:32:22 54° S 13:36:57 10° ESE daylight
04 Aug - 15:09:14 10° W 15:13:31 36° SSW 15:17:48 10° SE daylight
04 Aug - 16:51:49 10° WSW 16:54:10 14° SW 16:56:31 10° S daylight
05 Aug - 10:22:38 10° SSW 10:26:21 24° SSE 10:30:06 10° E daylight
05 Aug - 12:02:48 10° WSW 12:07:17 48° S 12:11:49 10° E daylight
05 Aug - 13:43:59 10° W 13:48:32 50° S 13:53:04 10° ESE daylight
05 Aug - 15:25:36 10° W 15:29:32 27° SSW 15:33:26 10° SSE daylight
